Home   Weather   Kallithea   Past weeks
Flag for Greece

Past Weather in Kallithea, Greece — Yesterday and Last 2 Weeks

Now
68 °F

Partly cloudy.


Feels Like: 68 °F
Forecast: 76 / 64 °F
Wind: 12 mph from Northwest

Location: Elefsis Airport

Current Time: Sep 20, 2019 at 9:31:43 pm

Latest Report: Sep 20, 2019 at 8:50 pm


Visibility: N/A

Pressure: 30.04 "Hg

Humidity: 69%

Dew Point: 57 °F

Location of KallitheaLocation

Past Weather in Kallithea — Graph

°F

Kallithea Temperature Yesterday

Maximum temperature yesterday: 88 °F (at 12:50 pm)
Minimum temperature yesterday: 66 °F (at 4:20 am)
Average temperature yesterday: 76 °F

High & Low Weather Summary for the Past Weeks

 TemperatureHumidityPressure
High91 °F (Sep 6, 2:50 pm)88% (Sep 13, 7:50 am)30.12 "Hg (Sep 13, 7:50 am)
Low64 °F (Sep 13, 7:50 am)22% (Sep 14, 4:20 pm)29.80 "Hg (Sep 5, 8:20 pm)
Average78 °F46%29.97 "Hg
* Reported Sep 5 8:20 pm — Sep 20 8:20 pm, Kallithea. Weather by CustomWeather, © 2019

Note: Actual official high and low records may vary slightly from our data, if they occured in-between our weather recording intervals... More about our weather records

Advertising

Kallithea Weather History for the Previous 24 Hours

Scroll right to see more
 ConditionsComfort  
Time TempWeatherWind HumidityBarometerVisibility
8:20 pm
Fri, Sep 20
68 °FPartly cloudy.14 mph69%30.04 "HgN/A
7:50 pm68 °FPartly cloudy.12 mph69%30.04 "HgN/A
7:20 pm68 °FBroken clouds.12 mph73%30.01 "HgN/A
6:50 pm68 °FBroken clouds.12 mph73%30.04 "HgN/A
6:20 pm70 °FBroken clouds.14 mph69%30.01 "HgN/A
5:50 pm70 °FBroken clouds.14 mph69%30.01 "HgN/A
5:20 pm70 °FBroken clouds.14 mph69%29.98 "HgN/A
4:50 pm72 °FBroken clouds.9 mph65%29.98 "HgN/A
4:20 pm72 °FBroken clouds.9 mph65%29.98 "HgN/A
3:50 pm73 °FBroken clouds.14 mph57%29.98 "HgN/A
3:20 pm75 °FBroken clouds.9 mph57%29.95 "HgN/A
2:50 pm77 °FBroken clouds.9 mph54%29.95 "HgN/A
2:20 pm77 °FBroken clouds.14 mph54%29.95 "HgN/A
1:50 pm79 °FBroken clouds.12 mph51%29.95 "HgN/A
1:20 pm81 °FScattered clouds.9 mph48%29.95 "HgN/A
12:50 pm81 °FScattered clouds.7 mph48%29.95 "HgN/A
12:20 pm82 °FScattered clouds.7 mph48%29.95 "HgN/A
11:50 am81 °FScattered clouds.7 mph54%29.95 "HgN/A
11:20 am82 °FScattered clouds.No wind51%29.95 "HgN/A
10:50 am79 °FScattered clouds.No wind58%29.95 "HgN/A
10:20 am77 °FPassing clouds.No wind61%29.95 "HgN/A
9:50 am77 °FPassing clouds.No wind65%29.95 "HgN/A
8:50 am73 °FPartly sunny.No wind74%29.92 "HgN/A
8:20 am73 °FPartly sunny.No wind69%29.89 "HgN/A
7:50 am70 °FScattered clouds.No wind78%29.92 "Hg6 mi
6:50 am72 °FPassing clouds.No wind73%29.92 "Hg6 mi
6:20 am70 °FPassing clouds.No wind78%29.92 "HgN/A
5:50 am70 °FPassing clouds.No wind78%29.92 "HgN/A
5:20 am70 °FPassing clouds.No wind83%29.92 "HgN/A
4:50 am70 °FPassing clouds.No wind78%29.92 "HgN/A
4:20 am70 °FPassing clouds.No wind83%29.92 "HgN/A
3:50 am70 °FPassing clouds.No wind83%29.92 "HgN/A
3:20 am70 °FPassing clouds.No wind83%29.92 "HgN/A
2:50 am70 °FPassing clouds.No wind83%29.92 "HgN/A
2:20 am72 °FPassing clouds.No wind78%29.95 "HgN/A
1:50 am72 °FClear.No wind78%29.95 "Hg10 mi
1:20 am72 °FPassing clouds.No wind78%29.95 "HgN/A
12:50 am72 °FPassing clouds.No wind83%29.95 "HgN/A
12:20 am73 °FPassing clouds.No wind78%29.95 "HgN/A
11:50 pm
Thu, Sep 19
73 °FPassing clouds.No wind78%29.95 "HgN/A
11:20 pm75 °FPassing clouds.No wind69%29.95 "HgN/A
10:50 pm75 °FPassing clouds.No wind74%29.95 "HgN/A
10:20 pm75 °FPassing clouds.No wind78%29.95 "HgN/A
9:50 pm75 °FPassing clouds.No wind78%29.95 "HgN/A
9:20 pm77 °FPassing clouds.No wind74%29.95 "HgN/A
Weather by CustomWeather, © 2019

See weather overview